Year,Month,Day,Hour,Minute,Value (Times are PST for temperature in C)
2011,08,12,08,06,14.50
2011,08,12,08,07,14.60
2011,08,12,08,08,14.70
2011,08,12,08,09,14.70
2011,08,12,08,10,14.70
2011,08,12,08,11,14.80
2011,08,12,08,12,14.80
2011,08,12,08,13,14.90
2011,08,12,08,14,14.90
2011,08,12,08,15,15.00
2011,08,12,08,16,15.00
2011,08,12,08,17,15.10
2011,08,12,08,18,15.20
2011,08,12,08,19,15.30
2011,08,12,08,20,15.30
2011,08,12,08,21,15.30
2011,08,12,08,22,15.40
2011,08,12,08,23,15.40
2011,08,12,08,24,15.50
2011,08,12,08,25,15.50
2011,08,12,08,26,15.60
2011,08,12,08,27,15.70
2011,08,12,08,28,15.80
2011,08,12,08,29,15.80
2011,08,12,08,30,15.80
2011,08,12,08,31,15.80
2011,08,12,08,32,15.90
2011,08,12,08,33,15.90
2011,08,12,08,34,16.00
2011,08,12,08,35,16.10
2011,08,12,08,36,16.10
2011,08,12,08,37,16.20
2011,08,12,08,38,16.20
2011,08,12,08,39,16.30
2011,08,12,08,40,16.30
2011,08,12,08,41,16.30
2011,08,12,08,42,16.40
2011,08,12,08,43,16.40
2011,08,12,08,44,16.40
2011,08,12,08,45,16.40
2011,08,12,08,46,16.40
2011,08,12,08,47,16.40
2011,08,12,08,48,16.40
2011,08,12,08,49,16.40
2011,08,12,08,50,16.40
2011,08,12,08,51,16.50
2011,08,12,08,52,16.60
2011,08,12,08,53,16.70
2011,08,12,08,54,16.70
2011,08,12,08,55,16.70
2011,08,12,08,56,16.70
2011,08,12,08,57,16.60
2011,08,12,08,58,16.60
2011,08,12,08,59,16.70
2011,08,12,09,00,16.70
2011,08,12,09,01,16.70
2011,08,12,09,02,16.80
2011,08,12,09,03,16.80
2011,08,12,09,04,16.80
2011,08,12,09,05,16.90
2011,08,12,09,06,16.90
2011,08,12,09,07,16.80
2011,08,12,09,08,16.80
2011,08,12,09,09,16.90
2011,08,12,09,10,16.80
2011,08,12,09,11,16.80
2011,08,12,09,12,16.90
2011,08,12,09,13,16.90
2011,08,12,09,14,16.90
2011,08,12,09,15,16.90
2011,08,12,09,16,17.00
2011,08,12,09,17,17.00
2011,08,12,09,18,17.00
2011,08,12,09,19,17.10
2011,08,12,09,20,17.20
2011,08,12,09,21,17.30
2011,08,12,09,22,17.30
2011,08,12,09,23,17.30
2011,08,12,09,24,17.20
2011,08,12,09,25,17.10
2011,08,12,09,26,17.00
2011,08,12,09,27,16.90
2011,08,12,09,28,16.80
2011,08,12,09,29,16.80
2011,08,12,09,30,16.80
2011,08,12,09,31,16.70
2011,08,12,09,32,16.70
2011,08,12,09,33,16.70
2011,08,12,09,34,16.80
2011,08,12,09,35,16.90
2011,08,12,09,36,17.00
2011,08,12,09,37,17.00
2011,08,12,09,38,17.10
2011,08,12,09,39,17.10
2011,08,12,09,40,17.20
2011,08,12,09,41,17.20
2011,08,12,09,42,17.20
2011,08,12,09,43,17.30
2011,08,12,09,44,17.20
2011,08,12,09,45,17.10
2011,08,12,09,46,17.00
2011,08,12,09,47,16.90
2011,08,12,09,48,16.80
2011,08,12,09,49,16.80
2011,08,12,09,50,16.80
2011,08,12,09,51,16.90
2011,08,12,09,52,17.00
2011,08,12,09,53,17.00
2011,08,12,09,54,17.20
2011,08,12,09,55,17.30
2011,08,12,09,56,17.40
2011,08,12,09,57,17.50
2011,08,12,09,58,17.50
2011,08,12,09,59,17.50
2011,08,12,10,00,17.40
2011,08,12,10,01,17.20
2011,08,12,10,02,17.10
2011,08,12,10,03,17.00
2011,08,12,10,04,17.00
2011,08,12,10,05,16.90
2011,08,12,10,06,16.90
2011,08,12,10,07,16.80
2011,08,12,10,08,16.90
2011,08,12,10,09,17.00
2011,08,12,10,10,17.10
2011,08,12,10,11,17.20
2011,08,12,10,12,17.30
2011,08,12,10,13,17.50
2011,08,12,10,14,17.50
2011,08,12,10,15,17.50
2011,08,12,10,16,17.50
2011,08,12,10,17,17.50
2011,08,12,10,18,17.50
2011,08,12,10,19,17.40
2011,08,12,10,20,17.30
2011,08,12,10,21,17.20
2011,08,12,10,22,17.20
2011,08,12,10,23,17.10
2011,08,12,10,24,17.20
2011,08,12,10,25,17.20
2011,08,12,10,26,17.20
2011,08,12,10,27,17.30
2011,08,12,10,28,17.30
2011,08,12,10,29,17.30
2011,08,12,10,30,17.30
2011,08,12,10,31,17.30
2011,08,12,10,32,17.20
2011,08,12,10,33,17.00
2011,08,12,10,34,16.90
2011,08,12,10,35,16.80
2011,08,12,10,36,16.80
2011,08,12,10,37,16.80
2011,08,12,10,38,16.80
2011,08,12,10,39,16.70
2011,08,12,10,40,16.70
2011,08,12,10,41,16.70
2011,08,12,10,42,16.80
2011,08,12,10,43,16.80
2011,08,12,10,44,16.90
2011,08,12,10,45,16.90
2011,08,12,10,46,17.00
2011,08,12,10,47,17.00
2011,08,12,10,48,17.00
2011,08,12,10,49,17.10
2011,08,12,10,50,17.10
2011,08,12,10,51,17.20
2011,08,12,10,52,17.30
2011,08,12,10,53,17.40
2011,08,12,10,54,17.50
2011,08,12,10,55,17.70
2011,08,12,10,56,17.90
2011,08,12,10,57,18.00
2011,08,12,10,58,17.90
2011,08,12,10,59,17.90
2011,08,12,11,00,17.90
2011,08,12,11,01,17.90
2011,08,12,11,02,18.00
2011,08,12,11,03,18.20
2011,08,12,11,04,18.20
2011,08,12,11,05,18.20
2011,08,12,11,06,18.20
2011,08,12,11,07,18.20
2011,08,12,11,08,18.30
2011,08,12,11,09,18.20
2011,08,12,11,10,18.10
2011,08,12,11,11,18.00
2011,08,12,11,12,17.90
2011,08,12,11,13,18.00
2011,08,12,11,14,18.20
2011,08,12,11,15,18.30
2011,08,12,11,16,18.30
2011,08,12,11,17,18.40
2011,08,12,11,18,18.40
2011,08,12,11,19,18.40
2011,08,12,11,20,18.40
2011,08,12,11,21,18.30
2011,08,12,11,22,18.20
2011,08,12,11,23,18.10
2011,08,12,11,24,18.20
2011,08,12,11,25,18.20
2011,08,12,11,26,18.30
2011,08,12,11,27,18.30
2011,08,12,11,28,18.30
2011,08,12,11,29,18.30
2011,08,12,11,30,18.30
2011,08,12,11,31,18.20
2011,08,12,11,32,18.20
2011,08,12,11,33,18.20
2011,08,12,11,34,18.20
2011,08,12,11,35,18.20
2011,08,12,11,36,18.20
2011,08,12,11,37,18.10
2011,08,12,11,38,18.00
2011,08,12,11,39,18.00
2011,08,12,11,40,18.10
2011,08,12,11,41,18.20
2011,08,12,11,42,18.20
2011,08,12,11,43,18.00
2011,08,12,11,44,17.90
2011,08,12,11,45,17.90
2011,08,12,11,46,17.90
2011,08,12,11,47,17.90
2011,08,12,11,48,17.90
2011,08,12,11,49,17.90
2011,08,12,11,50,17.90
2011,08,12,11,51,18.00
2011,08,12,11,52,18.10
2011,08,12,11,53,18.10
2011,08,12,11,54,18.20
2011,08,12,11,55,18.20
2011,08,12,11,56,18.20
2011,08,12,11,57,18.20
2011,08,12,11,58,18.20
2011,08,12,11,59,18.30
2011,08,12,12,00,18.40
2011,08,12,12,01,18.50
2011,08,12,12,02,18.60
2011,08,12,12,03,18.70
2011,08,12,12,04,18.70
2011,08,12,12,05,18.70
2011,08,12,12,06,18.80
2011,08,12,12,07,18.90
2011,08,12,12,08,18.90
2011,08,12,12,09,18.70
2011,08,12,12,10,18.60
2011,08,12,12,11,18.50
2011,08,12,12,12,18.40
2011,08,12,12,13,18.40
2011,08,12,12,14,18.30
2011,08,12,12,15,18.20
2011,08,12,12,16,18.20
2011,08,12,12,17,18.20
2011,08,12,12,18,18.30
2011,08,12,12,19,18.50
2011,08,12,12,20,18.50
2011,08,12,12,21,18.60
2011,08,12,12,22,18.60
2011,08,12,12,23,18.70
2011,08,12,12,24,18.70
2011,08,12,12,25,18.80
2011,08,12,12,26,18.80
2011,08,12,12,27,18.80
2011,08,12,12,28,18.90
2011,08,12,12,29,18.90
2011,08,12,12,30,19.00
2011,08,12,12,31,19.10
2011,08,12,12,32,19.00
2011,08,12,12,33,18.90
2011,08,12,12,34,18.90
2011,08,12,12,35,18.90
2011,08,12,12,36,18.90
2011,08,12,12,37,18.90
2011,08,12,12,38,18.80
2011,08,12,12,39,18.80
2011,08,12,12,40,18.80
2011,08,12,12,41,18.70
2011,08,12,12,42,18.70
2011,08,12,12,43,18.60
2011,08,12,12,44,18.50
2011,08,12,12,45,18.40
2011,08,12,12,46,18.40
2011,08,12,12,47,18.20
2011,08,12,12,48,18.00
2011,08,12,12,49,17.90
2011,08,12,12,50,17.90
2011,08,12,12,51,17.90
2011,08,12,12,52,17.90
2011,08,12,12,53,17.90
2011,08,12,12,54,17.80
2011,08,12,12,55,17.80
2011,08,12,12,56,17.80
2011,08,12,12,57,17.90
2011,08,12,12,58,17.90
2011,08,12,12,59,17.90
2011,08,12,13,00,17.90
2011,08,12,13,01,17.90
2011,08,12,13,02,17.90
2011,08,12,13,03,17.90
2011,08,12,13,04,18.00
2011,08,12,13,05,18.10
2011,08,12,13,06,18.00
2011,08,12,13,07,17.90
2011,08,12,13,08,17.60
2011,08,12,13,09,17.50
2011,08,12,13,10,17.30
2011,08,12,13,11,17.20
2011,08,12,13,12,17.00
2011,08,12,13,13,16.90
2011,08,12,13,14,16.80
2011,08,12,13,15,16.90
2011,08,12,13,16,16.80
2011,08,12,13,17,16.90
2011,08,12,13,18,16.90
2011,08,12,13,19,17.00
2011,08,12,13,20,17.10
2011,08,12,13,21,17.20
2011,08,12,13,22,17.30
2011,08,12,13,23,17.30
2011,08,12,13,24,17.30
2011,08,12,13,25,17.30
2011,08,12,13,26,17.40
2011,08,12,13,27,17.50
2011,08,12,13,28,17.50
2011,08,12,13,29,17.50
2011,08,12,13,30,17.50
2011,08,12,13,31,17.50
2011,08,12,13,32,17.60
2011,08,12,13,33,17.70
2011,08,12,13,34,17.70
2011,08,12,13,35,17.70
2011,08,12,13,36,17.80
2011,08,12,13,37,17.90
2011,08,12,13,38,17.90
2011,08,12,13,39,17.90
2011,08,12,13,40,17.90
2011,08,12,13,41,17.90
2011,08,12,13,42,17.90
2011,08,12,13,43,18.00
2011,08,12,13,44,18.10
2011,08,12,13,45,18.10
2011,08,12,13,46,18.10
2011,08,12,13,47,18.10
2011,08,12,13,48,18.00
2011,08,12,13,49,17.90
2011,08,12,13,50,17.90
2011,08,12,13,51,17.90
2011,08,12,13,52,17.90
2011,08,12,13,53,17.80
2011,08,12,13,54,17.70
2011,08,12,13,55,17.60
2011,08,12,13,56,17.70
2011,08,12,13,57,17.70
2011,08,12,13,58,17.80
2011,08,12,13,59,17.80
2011,08,12,14,00,17.80
2011,08,12,14,01,17.90
2011,08,12,14,02,17.90
2011,08,12,14,03,17.90
2011,08,12,14,04,17.90
2011,08,12,14,05,17.90
2011,08,12,14,06,17.90
2011,08,12,14,07,17.90
2011,08,12,14,08,17.90
2011,08,12,14,09,17.90
2011,08,12,14,10,17.90
2011,08,12,14,11,17.90
2011,08,12,14,12,17.80
2011,08,12,14,13,17.80
2011,08,12,14,14,17.90
2011,08,12,14,15,17.90
2011,08,12,14,16,17.90
2011,08,12,14,17,17.80
2011,08,12,14,18,17.80
2011,08,12,14,19,17.80
2011,08,12,14,20,17.90
2011,08,12,14,21,17.90
2011,08,12,14,22,17.90
2011,08,12,14,23,17.90
2011,08,12,14,24,17.70
2011,08,12,14,25,17.70
2011,08,12,14,26,17.70
2011,08,12,14,27,17.80
2011,08,12,14,28,17.90
2011,08,12,14,29,17.90
2011,08,12,14,30,17.90
2011,08,12,14,31,17.90
2011,08,12,14,32,17.90
2011,08,12,14,33,17.90
2011,08,12,14,34,17.90
2011,08,12,14,35,18.00
2011,08,12,14,36,18.10
2011,08,12,14,37,18.10
2011,08,12,14,38,18.10
2011,08,12,14,39,18.10
2011,08,12,14,40,18.10
2011,08,12,14,41,18.20
2011,08,12,14,42,18.20
2011,08,12,14,43,18.20
2011,08,12,14,44,18.20
2011,08,12,14,45,18.40
2011,08,12,14,46,18.40
2011,08,12,14,47,18.40
2011,08,12,14,48,18.50
2011,08,12,14,49,18.50
2011,08,12,14,50,18.50
2011,08,12,14,51,18.60
2011,08,12,14,52,18.70
2011,08,12,14,53,18.70
2011,08,12,14,54,18.80
2011,08,12,14,55,18.80
2011,08,12,14,56,18.80
2011,08,12,14,57,18.80
2011,08,12,14,58,18.80
2011,08,12,14,59,18.90
2011,08,12,15,00,18.90
2011,08,12,15,01,18.90
2011,08,12,15,02,18.90
2011,08,12,15,03,18.90
2011,08,12,15,04,18.90
2011,08,12,15,05,18.90
2011,08,12,15,06,19.10
2011,08,12,15,07,19.10
2011,08,12,15,08,19.10
2011,08,12,15,09,18.90
2011,08,12,15,10,18.80
2011,08,12,15,11,18.80
2011,08,12,15,12,18.80
2011,08,12,15,13,18.80
2011,08,12,15,14,18.80
2011,08,12,15,15,18.90
2011,08,12,15,16,18.90
2011,08,12,15,17,18.90
2011,08,12,15,18,18.90
2011,08,12,15,19,18.90
2011,08,12,15,20,18.90
2011,08,12,15,21,18.90
2011,08,12,15,22,18.90
2011,08,12,15,23,18.90
2011,08,12,15,24,18.90
2011,08,12,15,25,18.90
2011,08,12,15,26,19.00
2011,08,12,15,27,19.10
2011,08,12,15,28,19.10
2011,08,12,15,29,19.30
2011,08,12,15,30,19.30
2011,08,12,15,31,19.30
2011,08,12,15,32,19.20
2011,08,12,15,33,19.10
2011,08,12,15,34,19.10
2011,08,12,15,35,19.10
2011,08,12,15,36,19.10
2011,08,12,15,37,19.20
2011,08,12,15,38,19.10
2011,08,12,15,39,19.10
2011,08,12,15,40,19.00
2011,08,12,15,41,18.90
2011,08,12,15,42,18.80
2011,08,12,15,43,18.70
2011,08,12,15,44,18.70
2011,08,12,15,45,18.60
2011,08,12,15,46,18.60
2011,08,12,15,47,18.60
2011,08,12,15,48,18.60
2011,08,12,15,49,18.70
2011,08,12,15,50,18.70
2011,08,12,15,51,18.60
2011,08,12,15,52,18.60
2011,08,12,15,53,18.50
2011,08,12,15,54,18.40
2011,08,12,15,55,18.40
2011,08,12,15,56,18.40
2011,08,12,15,57,18.40
2011,08,12,15,58,18.40
2011,08,12,15,59,18.50
2011,08,12,16,00,18.60
2011,08,12,16,01,18.70
2011,08,12,16,02,18.80
2011,08,12,16,03,18.90
2011,08,12,16,04,18.90
2011,08,12,16,05,18.90
2011,08,12,16,06,19.00
2011,08,12,16,07,19.10
2011,08,12,16,08,19.10
2011,08,12,16,09,19.10
2011,08,12,16,10,19.20
2011,08,12,16,11,19.20
2011,08,12,16,12,19.10
2011,08,12,16,13,18.80
2011,08,12,16,14,18.60
2011,08,12,16,15,18.50
2011,08,12,16,16,18.40
2011,08,12,16,17,18.40
2011,08,12,16,18,18.50
2011,08,12,16,19,18.50
2011,08,12,16,20,18.50
2011,08,12,16,21,18.50
2011,08,12,16,22,18.50
2011,08,12,16,23,18.60
2011,08,12,16,24,18.70
2011,08,12,16,25,18.80
2011,08,12,16,26,18.90
2011,08,12,16,27,18.90
2011,08,12,16,28,19.00
2011,08,12,16,29,19.10
2011,08,12,16,30,19.10
2011,08,12,16,31,19.10
2011,08,12,16,32,19.10
2011,08,12,16,33,19.20
2011,08,12,16,34,19.20
2011,08,12,16,35,19.20
2011,08,12,16,36,19.20
2011,08,12,16,37,19.10
2011,08,12,16,38,19.10
2011,08,12,16,39,19.00
2011,08,12,16,40,18.90
2011,08,12,16,41,18.90
2011,08,12,16,42,18.80
2011,08,12,16,43,18.80
2011,08,12,16,44,18.70
2011,08,12,16,45,18.70
2011,08,12,16,46,18.60
2011,08,12,16,47,18.60
2011,08,12,16,48,18.50
2011,08,12,16,49,18.50
2011,08,12,16,50,18.50
2011,08,12,16,51,18.40
2011,08,12,16,52,18.40
2011,08,12,16,53,18.30
2011,08,12,16,54,18.30
2011,08,12,16,55,18.40
2011,08,12,16,56,18.40
2011,08,12,16,57,18.40
2011,08,12,16,58,18.50
2011,08,12,16,59,18.50
2011,08,12,17,00,18.50
2011,08,12,17,01,18.50
2011,08,12,17,02,18.50
2011,08,12,17,03,18.50
2011,08,12,17,04,18.50
2011,08,12,17,05,18.50
2011,08,12,17,06,18.50
2011,08,12,17,07,18.60
2011,08,12,17,08,18.70
2011,08,12,17,09,18.70
2011,08,12,17,10,18.70
2011,08,12,17,11,18.70
2011,08,12,17,12,18.60
2011,08,12,17,13,18.60
2011,08,12,17,14,18.60
2011,08,12,17,15,18.60
2011,08,12,17,16,18.70
2011,08,12,17,17,18.70
2011,08,12,17,18,18.70
2011,08,12,17,19,18.70
2011,08,12,17,20,18.70
2011,08,12,17,21,18.70
2011,08,12,17,22,18.70
2011,08,12,17,23,18.70
2011,08,12,17,24,18.70
2011,08,12,17,25,18.60
2011,08,12,17,26,18.60
2011,08,12,17,27,18.60
2011,08,12,17,28,18.60
2011,08,12,17,29,18.60
2011,08,12,17,30,18.60
2011,08,12,17,31,18.60
2011,08,12,17,32,18.60
2011,08,12,17,33,18.60
2011,08,12,17,34,18.60
2011,08,12,17,35,18.60
2011,08,12,17,36,18.70
2011,08,12,17,37,18.70
2011,08,12,17,38,18.80
2011,08,12,17,39,18.80
2011,08,12,17,40,18.80
2011,08,12,17,41,18.70
2011,08,12,17,42,18.60
2011,08,12,17,43,18.50
2011,08,12,17,44,18.40
2011,08,12,17,45,18.30
2011,08,12,17,46,18.20
2011,08,12,17,47,18.10
2011,08,12,17,48,18.00
2011,08,12,17,49,17.90
2011,08,12,17,50,17.90
2011,08,12,17,51,17.90
2011,08,12,17,52,17.90
2011,08,12,17,53,17.90
2011,08,12,17,54,17.90
2011,08,12,17,55,18.10
2011,08,12,17,56,18.20
2011,08,12,17,57,18.20
2011,08,12,17,58,18.30
2011,08,12,17,59,18.30
2011,08,12,18,00,18.30
2011,08,12,18,01,18.30
2011,08,12,18,02,18.30
2011,08,12,18,03,18.40
2011,08,12,18,04,18.30
2011,08,12,18,05,18.30
2011,08,12,18,06,18.30
2011,08,12,18,07,18.40
2011,08,12,18,08,18.50
2011,08,12,18,09,18.50
2011,08,12,18,10,18.50
2011,08,12,18,11,18.50
2011,08,12,18,12,18.50
2011,08,12,18,13,18.50
2011,08,12,18,14,18.50
2011,08,12,18,15,18.50
2011,08,12,18,16,18.50
2011,08,12,18,17,18.50
2011,08,12,18,18,18.50
2011,08,12,18,19,18.50
2011,08,12,18,20,18.50
